Time,TemperatureF,DewpointF,PressureIn,WindDirection,WindDirectionDegrees,WindSpeedMPH,WindSpeedGustMPH,Humidity,HourlyPrecipIn,Conditions,Clouds,dailyrainin,SoftwareType,DateUTC
2013-11-07 00:01:00,29.0,27.0,30.16,West,264,0.0,0.0,92,0.00,,SCT050,0.00,VWS V14.01,2013-11-07 06:01:00,
2013-11-07 00:06:00,28.9,26.9,30.16,West,264,0.0,0.0,92,0.00,,SCT050,0.00,VWS V14.01,2013-11-07 06:06:00,
2013-11-07 00:11:00,28.8,26.8,30.16,West,264,0.0,0.0,92,0.00,,SCT050,0.00,VWS V14.01,2013-11-07 06:11:00,
2013-11-07 00:16:00,28.6,26.6,30.16,West,264,0.0,0.0,92,0.00,,OVC070,0.00,VWS V14.01,2013-11-07 06:16:00,
2013-11-07 00:21:00,28.6,26.6,30.16,West,264,0.0,0.0,92,0.00,,SCT050,0.00,VWS V14.01,2013-11-07 06:21:00,
2013-11-07 00:26:00,28.4,26.4,30.16,West,264,0.0,0.0,92,0.00,,SCT050,0.00,VWS V14.01,2013-11-07 06:26:00,
2013-11-07 00:31:00,28.3,26.5,30.16,West,264,0.0,0.0,93,0.00,,SCT070,0.00,VWS V14.01,2013-11-07 06:31:00,
2013-11-07 00:36:00,28.3,26.5,30.16,West,264,0.0,1.0,93,0.00,,SCT095,0.00,VWS V14.01,2013-11-07 06:36:00,
2013-11-07 00:41:00,28.3,26.5,30.16,West,264,0.0,1.0,93,0.00,,SCT095,0.00,VWS V14.01,2013-11-07 06:41:00,
2013-11-07 00:46:00,28.2,26.4,30.16,West,264,0.0,1.0,93,0.00,,SCT095,0.00,VWS V14.01,2013-11-07 06:46:00,
2013-11-07 00:51:00,28.0,26.2,30.16,West,264,0.0,1.0,93,0.00,,BKN095,0.00,VWS V14.01,2013-11-07 06:51:00,
2013-11-07 00:56:00,27.7,25.9,30.16,West,264,0.0,1.0,93,0.00,,SCT070,0.00,VWS V14.01,2013-11-07 06:56:00,
2013-11-07 01:01:00,27.6,26.1,30.16,West,264,0.0,0.0,94,0.00,,BKN095,0.00,VWS V14.01,2013-11-07 07:01:00,
2013-11-07 01:06:00,27.7,26.2,30.16,West,264,0.0,1.0,94,0.00,,BKN095,0.00,VWS V14.01,2013-11-07 07:06:00,
2013-11-07 01:11:00,27.7,26.2,30.17,West,264,0.0,1.0,94,0.00,,BKN095,0.00,VWS V14.01,2013-11-07 07:11:00,
2013-11-07 01:16:00,27.8,26.3,30.17,WSW,256,2.0,2.0,94,0.00,,SCT070,0.00,VWS V14.01,2013-11-07 07:16:00,
2013-11-07 01:21:00,28.0,26.5,30.17,WSW,252,2.0,3.0,94,0.00,,BKN095,0.00,VWS V14.01,2013-11-07 07:21:00,
2013-11-07 01:26:00,28.0,26.5,30.17,WSW,253,2.0,3.0,94,0.00,,BKN095,0.00,VWS V14.01,2013-11-07 07:26:00,
2013-11-07 01:31:00,27.9,26.4,30.17,WSW,250,0.0,2.0,94,0.00,,BKN095,0.00,VWS V14.01,2013-11-07 07:31:00,
2013-11-07 01:36:00,27.9,26.4,30.17,WSW,253,1.0,2.0,94,0.00,,OVC036,0.00,VWS V14.01,2013-11-07 07:36:00,
2013-11-07 01:41:00,27.8,26.3,30.17,WSW,256,0.0,2.0,94,0.00,,OVC036,0.00,VWS V14.01,2013-11-07 07:41:00,
2013-11-07 01:46:00,27.7,26.2,30.17,WSW,254,0.0,2.0,94,0.00,,OVC036,0.00,VWS V14.01,2013-11-07 07:46:00,
2013-11-07 01:51:00,27.5,26.0,30.17,WSW,255,0.0,2.0,94,0.00,,OVC036,0.00,VWS V14.01,2013-11-07 07:51:00,
2013-11-07 01:56:00,27.4,25.9,30.17,WSW,255,0.0,2.0,94,0.00,,OVC036,0.00,VWS V14.01,2013-11-07 07:56:00,
2013-11-07 02:01:00,27.3,25.8,30.16,WSW,255,0.0,0.0,94,0.00,,OVC036,0.00,VWS V14.01,2013-11-07 08:01:00,
2013-11-07 02:06:00,27.2,25.7,30.17,WSW,254,0.0,0.0,94,0.00,,OVC036,0.00,VWS V14.01,2013-11-07 08:06:00,
2013-11-07 02:11:00,27.0,25.5,30.17,WSW,255,0.0,0.0,94,0.00,,OVC036,0.00,VWS V14.01,2013-11-07 08:11:00,
2013-11-07 02:16:00,26.8,25.3,30.16,WSW,254,0.0,0.0,94,0.00,,OVC036,0.00,VWS V14.01,2013-11-07 08:16:00,
2013-11-07 02:21:00,26.7,25.5,30.16,WSW,255,0.0,0.0,95,0.00,,OVC036,0.00,VWS V14.01,2013-11-07 08:21:00,
2013-11-07 02:26:00,26.6,25.4,30.16,WSW,254,0.0,0.0,95,0.00,,OVC036,0.00,VWS V14.01,2013-11-07 08:26:00,
2013-11-07 02:31:00,26.6,25.4,30.16,WSW,254,0.0,0.0,95,0.00,,OVC036,0.00,VWS V14.01,2013-11-07 08:31:00,
2013-11-07 02:36:00,26.4,25.2,30.16,West,263,0.0,0.0,95,0.00,,BKN034,0.00,VWS V14.01,2013-11-07 08:36:00,
2013-11-07 02:41:00,26.3,25.1,30.16,West,263,0.0,0.0,95,0.00,,BKN034,0.00,VWS V14.01,2013-11-07 08:41:00,
2013-11-07 02:46:00,26.3,25.1,30.17,West,262,0.0,0.0,95,0.00,,BKN034,0.00,VWS V14.01,2013-11-07 08:46:00,
2013-11-07 02:51:00,26.1,24.9,30.17,West,263,0.0,0.0,95,0.00,,SCT034,0.00,VWS V14.01,2013-11-07 08:51:00,
2013-11-07 02:56:00,26.1,24.9,30.17,West,263,0.0,0.0,95,0.00,,SCT034,0.00,VWS V14.01,2013-11-07 08:56:00,
2013-11-07 03:01:00,26.1,25.1,30.16,West,262,0.0,0.0,96,0.00,,SCT034,0.00,VWS V14.01,2013-11-07 09:01:00,
2013-11-07 03:06:00,26.0,25.0,30.16,West,263,0.0,0.0,96,0.00,,SCT034,0.00,VWS V14.01,2013-11-07 09:06:00,
2013-11-07 03:11:00,25.9,24.9,30.16,West,262,0.0,0.0,96,0.00,,SCT034,0.00,VWS V14.01,2013-11-07 09:11:00,
2013-11-07 03:16:00,25.7,24.5,30.16,West,263,0.0,0.0,95,0.00,,SCT034,0.00,VWS V14.01,2013-11-07 09:16:00,
2013-11-07 03:21:00,25.5,24.5,30.16,West,263,0.0,0.0,96,0.00,,SCT034,0.00,VWS V14.01,2013-11-07 09:21:00,
2013-11-07 03:26:00,25.4,24.4,30.16,West,263,0.0,0.0,96,0.00,,SCT034,0.00,VWS V14.01,2013-11-07 09:26:00,
2013-11-07 03:31:00,25.3,24.3,30.16,West,263,1.0,1.0,96,0.00,,SCT034,0.00,VWS V14.01,2013-11-07 09:31:00,
2013-11-07 03:36:00,25.2,24.2,30.16,West,263,0.0,1.0,96,0.00,,CLR,0.00,VWS V14.01,2013-11-07 09:36:00,
2013-11-07 03:41:00,24.9,23.9,30.16,WSW,255,0.0,1.0,96,0.00,,CLR,0.00,VWS V14.01,2013-11-07 09:41:00,
2013-11-07 03:46:00,24.8,23.8,30.17,WSW,255,0.0,1.0,96,0.00,,CLR,0.00,VWS V14.01,2013-11-07 09:46:00,
2013-11-07 03:51:00,24.8,23.8,30.17,WSW,254,1.0,1.0,96,0.00,,,0.00,VWS V14.01,2013-11-07 09:51:00,
2013-11-07 03:56:00,24.6,23.6,30.17,West,260,0.0,2.0,96,0.00,,,0.00,VWS V14.01,2013-11-07 09:56:00,
2013-11-07 04:01:00,24.4,23.4,30.17,West,260,0.0,1.0,96,0.00,,,0.00,VWS V14.01,2013-11-07 10:01:00,
2013-11-07 04:06:00,24.4,23.4,30.17,West,259,1.0,1.0,96,0.00,,,0.00,VWS V14.01,2013-11-07 10:06:00,
2013-11-07 04:11:00,24.3,23.3,30.17,WSW,252,1.0,2.0,96,0.00,,,0.00,VWS V14.01,2013-11-07 10:11:00,
2013-11-07 04:16:00,24.2,23.2,30.17,WSW,256,1.0,2.0,96,0.00,,,0.00,VWS V14.01,2013-11-07 10:16:00,
2013-11-07 04:20:00,24.2,23.2,30.17,WSW,253,0.0,2.0,96,0.00,,,0.00,VWS V14.01,2013-11-07 10:20:00,
2013-11-07 04:25:00,24.2,23.2,30.18,West,276,1.0,2.0,96,0.00,,,0.00,VWS V14.01,2013-11-07 10:25:00,
2013-11-07 04:30:00,24.0,23.0,30.18,West,273,0.0,1.0,96,0.00,,,0.00,VWS V14.01,2013-11-07 10:30:00,
2013-11-07 04:35:00,23.9,22.9,30.18,West,273,0.0,1.0,96,0.00,,CLR,0.00,VWS V14.01,2013-11-07 10:35:00,
2013-11-07 04:40:00,24.0,23.0,30.18,West,273,0.0,1.0,96,0.00,,CLR,0.00,VWS V14.01,2013-11-07 10:40:00,
2013-11-07 04:45:00,24.1,23.1,30.18,West,273,0.0,1.0,96,0.00,,CLR,0.00,VWS V14.01,2013-11-07 10:45:00,
2013-11-07 04:50:00,24.1,23.1,30.18,West,273,0.0,1.0,96,0.00,,CLR,0.00,VWS V14.01,2013-11-07 10:50:00,
2013-11-07 04:55:00,24.0,23.0,30.18,West,273,0.0,1.0,96,0.00,,CLR,0.00,VWS V14.01,2013-11-07 10:55:00,
2013-11-07 05:00:00,23.9,22.9,30.18,West,273,0.0,0.0,96,0.00,,CLR,0.00,VWS V14.01,2013-11-07 11:00:00,
2013-11-07 05:05:00,23.6,22.6,30.18,West,273,1.0,1.0,96,0.00,,CLR,0.00,VWS V14.01,2013-11-07 11:05:00,
2013-11-07 05:10:00,23.6,22.6,30.18,West,273,0.0,1.0,96,0.00,,CLR,0.00,VWS V14.01,2013-11-07 11:10:00,
2013-11-07 05:15:00,23.3,22.1,30.18,West,273,0.0,1.0,95,0.00,,CLR,0.00,VWS V14.01,2013-11-07 11:15:00,
2013-11-07 05:20:00,23.2,22.2,30.18,West,273,0.0,1.0,96,0.00,,CLR,0.00,VWS V14.01,2013-11-07 11:20:00,
2013-11-07 05:25:00,23.2,22.2,30.18,West,273,0.0,1.0,96,0.00,,CLR,0.00,VWS V14.01,2013-11-07 11:25:00,
2013-11-07 05:30:00,23.2,22.2,30.18,West,273,0.0,1.0,96,0.00,,CLR,0.00,VWS V14.01,2013-11-07 11:30:00,
2013-11-07 05:34:00,23.1,22.1,30.18,West,273,0.0,1.0,96,0.00,,CLR,0.00,VWS V14.01,2013-11-07 11:34:00,
2013-11-07 05:39:00,23.0,22.0,30.18,WNW,285,1.0,1.0,96,0.00,,CLR,0.00,VWS V14.01,2013-11-07 11:39:00,
2013-11-07 05:44:00,23.0,22.0,30.18,West,281,0.0,1.0,96,0.00,,CLR,0.00,VWS V14.01,2013-11-07 11:44:00,
2013-11-07 05:49:00,23.0,22.0,30.18,West,265,1.0,1.0,96,0.00,,SCT080,0.00,VWS V14.01,2013-11-07 11:49:00,
2013-11-07 05:54:00,23.0,22.0,30.18,West,274,1.0,2.0,96,0.00,,SCT080,0.00,VWS V14.01,2013-11-07 11:54:00,
2013-11-07 05:59:00,22.9,21.9,30.19,West,274,0.0,0.0,96,0.00,,SCT080,0.00,VWS V14.01,2013-11-07 11:59:00,
2013-11-07 06:04:00,22.9,21.9,30.18,West,274,0.0,0.0,96,0.00,,SCT080,0.00,VWS V14.01,2013-11-07 12:04:00,
2013-11-07 06:09:00,22.7,21.7,30.18,West,259,1.0,1.0,96,0.00,,SCT080,0.00,VWS V14.01,2013-11-07 12:09:00,
2013-11-07 06:14:00,22.7,21.7,30.19,West,278,1.0,1.0,96,0.00,,SCT080,0.00,VWS V14.01,2013-11-07 12:14:00,
2013-11-07 06:19:00,22.6,21.6,30.18,West,278,0.0,1.0,96,0.00,,SCT080,0.00,VWS V14.01,2013-11-07 12:19:00,
2013-11-07 06:24:00,22.7,21.7,30.18,West,278,0.0,1.0,96,0.00,,SCT080,0.00,VWS V14.01,2013-11-07 12:24:00,
2013-11-07 06:29:00,22.9,21.9,30.18,West,278,0.0,0.0,96,0.00,,SCT080,0.00,VWS V14.01,2013-11-07 12:29:00,
2013-11-07 06:34:00,23.1,22.1,30.18,West,278,0.0,0.0,96,0.00,,OVC070,0.00,VWS V14.01,2013-11-07 12:34:00,
2013-11-07 06:39:00,23.1,22.1,30.19,West,278,0.0,0.0,96,0.00,,OVC070,0.00,VWS V14.01,2013-11-07 12:39:00,
2013-11-07 06:44:00,23.2,22.2,30.19,West,278,0.0,0.0,96,0.00,,OVC070,0.00,VWS V14.01,2013-11-07 12:44:00,
2013-11-07 06:49:00,23.4,22.4,30.19,West,278,0.0,0.0,96,0.00,,OVC080,0.00,VWS V14.01,2013-11-07 12:49:00,
2013-11-07 06:54:00,23.6,22.6,30.19,West,278,0.0,0.0,96,0.00,,OVC080,0.00,VWS V14.01,2013-11-07 12:54:00,
2013-11-07 06:59:00,23.7,22.7,30.20,West,278,0.0,0.0,96,0.00,,OVC080,0.00,VWS V14.01,2013-11-07 12:59:00,
2013-11-07 07:04:00,23.8,22.8,30.20,West,278,0.0,0.0,96,0.00,,OVC080,0.00,VWS V14.01,2013-11-07 13:04:00,
2013-11-07 07:08:00,23.9,22.9,30.20,West,278,0.0,0.0,96,0.00,,OVC080,0.00,VWS V14.01,2013-11-07 13:08:00,
2013-11-07 07:13:00,24.1,23.1,30.20,West,278,0.0,0.0,96,0.00,,OVC080,0.00,VWS V14.01,2013-11-07 13:13:00,
2013-11-07 07:18:00,24.2,23.2,30.20,West,278,0.0,0.0,96,0.00,,OVC080,0.00,VWS V14.01,2013-11-07 13:18:00,
2013-11-07 07:23:00,24.2,23.2,30.21,West,278,0.0,0.0,96,0.00,,OVC080,0.00,VWS V14.01,2013-11-07 13:23:00,
2013-11-07 07:29:00,24.3,23.3,30.21,West,278,0.0,0.0,96,0.00,,OVC080,0.00,VWS V14.01,2013-11-07 13:29:00,
2013-11-07 07:33:00,24.4,23.4,30.21,West,278,0.0,0.0,96,0.00,,OVC080,0.00,VWS V14.01,2013-11-07 13:33:00,
2013-11-07 07:38:00,24.6,23.6,30.21,West,278,0.0,0.0,96,0.00,,OVC080,0.00,VWS V14.01,2013-11-07 13:38:00,
2013-11-07 07:43:00,24.8,23.8,30.21,West,278,0.0,0.0,96,0.00,,OVC080,0.00,VWS V14.01,2013-11-07 13:43:00,
2013-11-07 07:48:00,25.0,24.0,30.21,West,278,0.0,0.0,96,0.00,,OVC080,0.00,VWS V14.01,2013-11-07 13:48:00,
2013-11-07 07:53:00,25.2,24.2,30.22,West,278,0.0,0.0,96,0.00,,OVC080,0.00,VWS V14.01,2013-11-07 13:53:00,
2013-11-07 07:58:00,25.4,24.4,30.22,West,278,0.0,0.0,96,0.00,,OVC080,0.00,VWS V14.01,2013-11-07 13:58:00,
2013-11-07 08:03:00,25.6,24.6,30.22,West,278,0.0,0.0,96,0.00,,OVC080,0.00,VWS V14.01,2013-11-07 14:03:00,
2013-11-07 08:08:00,25.7,24.7,30.22,West,278,0.0,0.0,96,0.00,,OVC080,0.00,VWS V14.01,2013-11-07 14:08:00,
2013-11-07 08:13:00,25.9,24.9,30.22,West,278,0.0,0.0,96,0.00,,OVC080,0.00,VWS V14.01,2013-11-07 14:13:00,
2013-11-07 08:18:00,26.2,25.2,30.22,West,278,0.0,0.0,96,0.00,,OVC080,0.00,VWS V14.01,2013-11-07 14:18:00,
2013-11-07 08:23:00,26.4,25.4,30.22,West,278,0.0,0.0,96,0.00,,OVC080,0.00,VWS V14.01,2013-11-07 14:23:00,
2013-11-07 08:28:00,26.7,26.0,30.22,WSW,252,0.0,0.0,97,0.00,,OVC080,0.00,VWS V14.01,2013-11-07 14:28:00,
2013-11-07 08:33:00,26.9,25.9,30.22,WSW,253,0.0,1.0,96,0.00,,OVC043,0.00,VWS V14.01,2013-11-07 14:33:00,
2013-11-07 08:38:00,27.2,26.5,30.21,WSW,253,0.0,1.0,97,0.00,,OVC043,0.00,VWS V14.01,2013-11-07 14:38:00,
2013-11-07 08:43:00,27.5,26.5,30.21,West,267,0.0,1.0,96,0.00,,OVC043,0.00,VWS V14.01,2013-11-07 14:43:00,
2013-11-07 08:48:00,27.6,26.6,30.22,West,267,0.0,1.0,96,0.00,,OVC080,0.00,VWS V14.01,2013-11-07 14:48:00,
2013-11-07 08:53:00,27.8,26.8,30.22,West,266,0.0,1.0,96,0.00,,OVC080,0.00,VWS V14.01,2013-11-07 14:53:00,
2013-11-07 08:58:00,27.8,26.8,30.22,West,267,0.0,0.0,96,0.00,,OVC080,0.00,VWS V14.01,2013-11-07 14:58:00,
2013-11-07 09:03:00,28.1,27.1,30.22,WSW,256,0.0,0.0,96,0.00,,OVC080,0.00,VWS V14.01,2013-11-07 15:03:00,
2013-11-07 09:08:00,28.4,27.4,30.22,WSW,256,0.0,0.0,96,0.00,,OVC080,0.00,VWS V14.01,2013-11-07 15:08:00,
2013-11-07 09:13:00,28.7,27.7,30.22,WSW,256,0.0,0.0,96,0.00,,OVC080,0.00,VWS V14.01,2013-11-07 15:13:00,
2013-11-07 09:18:00,28.9,27.9,30.22,WSW,256,0.0,0.0,96,0.00,,OVC080,0.00,VWS V14.01,2013-11-07 15:18:00,
2013-11-07 09:23:00,29.1,28.1,30.22,WSW,249,0.0,0.0,96,0.00,,OVC080,0.00,VWS V14.01,2013-11-07 15:23:00,
2013-11-07 09:28:00,29.3,28.3,30.22,WSW,249,0.0,0.0,96,0.00,,OVC080,0.00,VWS V14.01,2013-11-07 15:28:00,
2013-11-07 09:33:00,29.5,28.5,30.22,WSW,249,0.0,0.0,96,0.00,,OVC080,0.00,VWS V14.01,2013-11-07 15:33:00,
2013-11-07 09:38:00,29.6,28.4,30.22,WSW,249,0.0,0.0,95,0.00,,OVC080,0.00,VWS V14.01,2013-11-07 15:38:00,
2013-11-07 09:43:00,29.8,28.5,30.22,WSW,249,0.0,0.0,95,0.00,,OVC080,0.00,VWS V14.01,2013-11-07 15:43:00,
2013-11-07 09:48:00,29.9,28.6,30.22,WSW,255,0.0,0.0,95,0.00,,OVC045,0.00,VWS V14.01,2013-11-07 15:48:00,
2013-11-07 09:53:00,29.8,28.5,30.22,WSW,256,0.0,0.0,95,0.00,,OVC045,0.00,VWS V14.01,2013-11-07 15:53:00,
2013-11-07 09:58:00,29.8,28.3,30.22,WSW,250,0.0,0.0,94,0.00,,OVC045,0.00,VWS V14.01,2013-11-07 15:58:00,
2013-11-07 10:03:00,29.9,28.4,30.22,WSW,241,0.0,0.0,94,0.00,,OVC045,0.00,VWS V14.01,2013-11-07 16:03:00,
2013-11-07 10:08:00,30.2,28.7,30.22,West,267,0.0,0.0,94,0.00,,OVC045,0.00,VWS V14.01,2013-11-07 16:08:00,
2013-11-07 10:13:00,30.6,29.1,30.22,SW,225,0.0,0.0,94,0.00,,OVC045,0.00,VWS V14.01,2013-11-07 16:13:00,
2013-11-07 10:18:00,30.8,29.3,30.23,WSW,257,0.0,0.0,94,0.00,,OVC045,0.00,VWS V14.01,2013-11-07 16:18:00,
2013-11-07 10:23:00,30.9,29.1,30.22,WSW,256,0.0,0.0,93,0.00,,OVC045,0.00,VWS V14.01,2013-11-07 16:23:00,
2013-11-07 10:28:00,30.9,29.1,30.23,WSW,256,0.0,0.0,93,0.00,,OVC045,0.00,VWS V14.01,2013-11-07 16:28:00,
2013-11-07 10:33:00,31.0,29.2,30.23,West,263,0.0,0.0,93,0.00,,OVC045,0.00,VWS V14.01,2013-11-07 16:33:00,
2013-11-07 10:38:00,31.2,29.1,30.23,WSW,249,0.0,0.0,92,0.00,,OVC045,0.00,VWS V14.01,2013-11-07 16:38:00,
2013-11-07 10:43:00,31.4,29.4,30.23,WSW,249,0.0,0.0,92,0.00,,OVC045,0.00,VWS V14.01,2013-11-07 16:43:00,
2013-11-07 10:48:00,31.4,28.8,30.23,WSW,249,0.0,0.0,90,0.00,,OVC047,0.00,VWS V14.01,2013-11-07 16:48:00,
2013-11-07 10:53:00,31.6,28.7,30.24,WSW,248,0.0,0.0,89,0.00,,OVC047,0.00,VWS V14.01,2013-11-07 16:53:00,
2013-11-07 10:58:00,31.7,28.8,30.24,West,270,0.0,0.0,89,0.00,,OVC047,0.00,VWS V14.01,2013-11-07 16:58:00,
2013-11-07 11:03:00,31.6,28.5,30.24,West,262,0.0,0.0,88,0.00,,OVC047,0.00,VWS V14.01,2013-11-07 17:03:00,
2013-11-07 11:08:00,31.7,28.8,30.24,West,260,0.0,0.0,89,0.00,,OVC047,0.00,VWS V14.01,2013-11-07 17:08:00,
2013-11-07 11:13:00,31.9,29.0,30.24,WSW,237,0.0,0.0,89,0.00,,OVC047,0.00,VWS V14.01,2013-11-07 17:13:00,
2013-11-07 11:18:00,32.2,29.3,30.24,WSW,249,0.0,0.0,89,0.00,,OVC047,0.00,VWS V14.01,2013-11-07 17:18:00,
2013-11-07 11:23:00,32.6,29.7,30.23,WSW,245,1.0,1.0,89,0.00,,OVC047,0.00,VWS V14.01,2013-11-07 17:23:00,
2013-11-07 11:28:00,33.1,30.2,30.23,WNW,285,2.0,2.0,89,0.00,,OVC047,0.00,VWS V14.01,2013-11-07 17:28:00,
2013-11-07 11:33:00,33.3,29.9,30.23,WSW,255,3.0,3.0,87,0.00,,OVC055,0.00,VWS V14.01,2013-11-07 17:33:00,
2013-11-07 11:38:00,33.3,29.6,30.23,West,271,3.0,5.0,86,0.00,,OVC055,0.00,VWS V14.01,2013-11-07 17:38:00,
2013-11-07 11:43:00,33.2,28.6,30.23,West,264,4.0,5.0,83,0.00,,OVC055,0.00,VWS V14.01,2013-11-07 17:43:00,
2013-11-07 11:48:00,33.4,29.1,30.22,West,278,3.0,5.0,84,0.00,,OVC055,0.00,VWS V14.01,2013-11-07 17:48:00,
2013-11-07 11:53:00,33.5,29.2,30.22,West,259,3.0,5.0,84,0.00,,OVC055,0.00,VWS V14.01,2013-11-07 17:53:00,
2013-11-07 11:58:00,33.7,29.4,30.22,West,276,2.0,4.0,84,0.00,,OVC055,0.00,VWS V14.01,2013-11-07 17:58:00,
2013-11-07 12:03:00,33.7,29.1,30.22,WSW,252,1.0,4.0,83,0.00,,OVC055,0.00,VWS V14.01,2013-11-07 18:03:00,
2013-11-07 12:08:00,34.0,29.7,30.22,West,263,1.0,4.0,84,0.00,,OVC055,0.00,VWS V14.01,2013-11-07 18:08:00,
2013-11-07 12:13:00,34.2,29.6,30.22,WSW,248,0.0,4.0,83,0.00,,OVC055,0.00,VWS V14.01,2013-11-07 18:13:00,
2013-11-07 12:18:00,34.7,29.8,30.21,WSW,252,0.0,4.0,82,0.00,,OVC055,0.00,VWS V14.01,2013-11-07 18:18:00,
2013-11-07 12:23:00,35.1,29.3,30.21,WSW,256,0.0,4.0,79,0.00,,OVC055,0.00,VWS V14.01,2013-11-07 18:23:00,
2013-11-07 12:28:00,35.4,28.6,30.21,SW,218,2.0,2.0,76,0.00,,OVC055,0.00,VWS V14.01,2013-11-07 18:28:00,
2013-11-07 12:33:00,35.6,29.1,30.20,WSW,246,1.0,4.0,77,0.00,,SCT070,0.00,VWS V14.01,2013-11-07 18:33:00,
2013-11-07 12:38:00,36.1,29.0,30.20,SW,229,0.0,4.0,75,0.00,,SCT070,0.00,VWS V14.01,2013-11-07 18:38:00,
2013-11-07 12:42:00,36.4,28.6,30.20,SSW,207,1.0,4.0,73,0.00,,SCT070,0.00,VWS V14.01,2013-11-07 18:42:00,
2013-11-07 12:47:00,36.6,28.8,30.20,SSW,205,0.0,4.0,73,0.00,,SCT070,0.00,VWS V14.01,2013-11-07 18:47:00,
2013-11-07 12:52:00,36.8,28.6,30.19,WSW,240,0.0,4.0,72,0.00,,CLR,0.00,VWS V14.01,2013-11-07 18:52:00,
2013-11-07 12:57:00,36.9,28.4,30.20,WSW,245,0.0,4.0,71,0.00,,CLR,0.00,VWS V14.01,2013-11-07 18:57:00,
2013-11-07 13:02:00,37.2,28.7,30.20,West,266,3.0,4.0,71,0.00,,CLR,0.00,VWS V14.01,2013-11-07 19:02:00,
2013-11-07 13:07:00,37.4,28.9,30.20,WNW,297,2.0,7.0,71,0.01,,CLR,0.01,VWS V14.01,2013-11-07 19:07:00,
2013-11-07 13:12:00,37.6,29.4,30.20,West,276,2.0,7.0,72,0.01,,CLR,0.01,VWS V14.01,2013-11-07 19:12:00,
2013-11-07 13:17:00,37.2,26.9,30.20,West,259,7.0,7.0,66,0.01,,CLR,0.01,VWS V14.01,2013-11-07 19:17:00,
2013-11-07 13:22:00,37.1,26.8,30.20,West,276,2.0,7.0,66,0.01,,CLR,0.01,VWS V14.01,2013-11-07 19:22:00,
2013-11-07 13:27:00,37.6,27.3,30.19,West,278,3.0,8.0,66,0.01,,CLR,0.01,VWS V14.01,2013-11-07 19:27:00,
2013-11-07 13:32:00,37.8,27.5,30.19,WSW,248,6.0,8.0,66,0.01,,SCT034,0.01,VWS V14.01,2013-11-07 19:32:00,
2013-11-07 13:37:00,38.0,27.7,30.19,NW,305,2.0,9.0,66,0.01,,SCT034,0.01,VWS V14.01,2013-11-07 19:37:00,
2013-11-07 13:42:00,38.2,27.5,30.19,WNW,302,2.0,9.0,65,0.01,,SCT034,0.01,VWS V14.01,2013-11-07 19:42:00,
2013-11-07 13:47:00,38.2,27.9,30.19,West,276,4.0,9.0,66,0.01,,SCT034,0.01,VWS V14.01,2013-11-07 19:47:00,
2013-11-07 13:52:00,38.6,28.6,30.19,West,269,7.0,9.0,67,0.01,,BKN042,0.01,VWS V14.01,2013-11-07 19:52:00,
2013-11-07 13:57:00,38.7,28.3,30.19,West,274,5.0,5.0,66,0.01,,BKN042,0.01,VWS V14.01,2013-11-07 19:57:00,
2013-11-07 14:02:00,38.8,27.7,30.19,WNW,290,3.0,6.0,64,0.01,,BKN042,0.01,VWS V14.01,2013-11-07 20:02:00,
2013-11-07 14:07:00,38.5,27.4,30.19,West,270,4.0,6.0,64,0.01,,BKN042,0.01,VWS V14.01,2013-11-07 20:07:00,
2013-11-07 14:12:00,38.0,26.9,30.19,West,270,4.0,7.0,64,0.01,,BKN042,0.01,VWS V14.01,2013-11-07 20:12:00,
2013-11-07 14:17:00,38.0,27.7,30.19,West,280,1.0,7.0,66,0.01,,BKN042,0.01,VWS V14.01,2013-11-07 20:17:00,
2013-11-07 14:22:00,38.8,28.1,30.19,West,277,3.0,7.0,65,0.01,,BKN042,0.01,VWS V14.01,2013-11-07 20:22:00,
2013-11-07 14:27:00,39.2,28.8,30.19,WNW,297,3.0,4.0,66,0.00,,BKN042,0.01,VWS V14.01,2013-11-07 20:27:00,
2013-11-07 14:32:00,38.7,26.8,30.19,West,273,2.0,5.0,62,0.00,,CLR,0.01,VWS V14.01,2013-11-07 20:32:00,
2013-11-07 14:37:00,38.7,28.0,30.18,West,275,2.0,5.0,65,0.00,,CLR,0.01,VWS V14.01,2013-11-07 20:37:00,
2013-11-07 14:42:00,38.6,27.1,30.18,West,281,5.0,10.0,63,0.00,,CLR,0.01,VWS V14.01,2013-11-07 20:42:00,
2013-11-07 14:47:00,38.7,27.6,30.18,WNW,283,9.0,10.0,64,0.00,,CLR,0.01,VWS V14.01,2013-11-07 20:47:00,
2013-11-07 14:52:00,38.5,28.1,30.18,West,264,4.0,10.0,66,0.00,,CLR,0.01,VWS V14.01,2013-11-07 20:52:00,
2013-11-07 14:57:00,38.7,28.7,30.18,WSW,257,4.0,7.0,67,0.00,,CLR,0.01,VWS V14.01,2013-11-07 20:57:00,
2013-11-07 15:02:00,38.5,29.2,30.18,West,267,2.0,8.0,69,0.00,,CLR,0.01,VWS V14.01,2013-11-07 21:02:00,
2013-11-07 15:07:00,38.3,29.4,30.18,WSW,244,3.0,8.0,70,0.00,,CLR,0.01,VWS V14.01,2013-11-07 21:07:00,
2013-11-07 15:12:00,38.3,29.7,30.18,WSW,249,3.0,8.0,71,0.00,,CLR,0.01,VWS V14.01,2013-11-07 21:12:00,
2013-11-07 15:17:00,38.3,29.7,30.18,West,279,5.0,8.0,71,0.00,,CLR,0.01,VWS V14.01,2013-11-07 21:17:00,
2013-11-07 15:22:00,38.1,29.5,30.18,WSW,255,3.0,8.0,71,0.00,,CLR,0.01,VWS V14.01,2013-11-07 21:22:00,
2013-11-07 15:27:00,38.0,29.5,30.19,West,272,4.0,5.0,71,0.00,,CLR,0.01,VWS V14.01,2013-11-07 21:27:00,
2013-11-07 15:32:00,37.7,29.5,30.19,West,264,3.0,11.0,72,0.00,,OVC095,0.01,VWS V14.01,2013-11-07 21:32:00,
2013-11-07 15:37:00,37.5,29.6,30.19,WSW,249,4.0,11.0,73,0.00,,OVC095,0.01,VWS V14.01,2013-11-07 21:37:00,
2013-11-07 15:42:00,37.2,29.4,30.19,WSW,246,4.0,11.0,73,0.00,,OVC095,0.01,VWS V14.01,2013-11-07 21:42:00,
2013-11-07 15:47:00,37.0,29.5,30.19,WSW,243,3.0,11.0,74,0.00,,OVC095,0.01,VWS V14.01,2013-11-07 21:47:00,
2013-11-07 15:52:00,36.8,29.6,30.19,West,277,4.0,11.0,75,0.00,,OVC095,0.01,VWS V14.01,2013-11-07 21:52:00,
2013-11-07 15:57:00,36.7,29.9,30.19,WSW,245,4.0,7.0,76,0.00,,OVC095,0.01,VWS V14.01,2013-11-07 21:57:00,
2013-11-07 16:02:00,36.6,30.1,30.19,WSW,248,8.0,8.0,77,0.00,,OVC095,0.01,VWS V14.01,2013-11-07 22:02:00,
2013-11-07 16:07:00,36.5,30.0,30.18,SW,235,3.0,8.0,77,0.00,,OVC095,0.01,VWS V14.01,2013-11-07 22:07:00,
2013-11-07 16:12:00,36.4,30.2,30.18,West,263,2.0,8.0,78,0.00,,OVC095,0.01,VWS V14.01,2013-11-07 22:12:00,
2013-11-07 16:17:00,36.3,30.1,30.19,West,271,4.0,8.0,78,0.00,,OVC095,0.01,VWS V14.01,2013-11-07 22:17:00,
2013-11-07 16:22:00,36.3,30.4,30.18,WSW,252,2.0,8.0,79,0.00,,OVC095,0.01,VWS V14.01,2013-11-07 22:22:00,
2013-11-07 16:27:00,36.1,29.9,30.18,WSW,245,1.0,3.0,78,0.00,,OVC095,0.01,VWS V14.01,2013-11-07 22:27:00,
2013-11-07 16:32:00,36.0,30.1,30.18,WSW,253,2.0,3.0,79,0.00,,OVC095,0.01,VWS V14.01,2013-11-07 22:32:00,
2013-11-07 16:37:00,35.9,30.0,30.18,WSW,252,0.0,4.0,79,0.00,,OVC095,0.01,VWS V14.01,2013-11-07 22:37:00,
2013-11-07 16:42:00,35.9,30.3,30.19,SW,235,1.0,4.0,80,0.00,,OVC095,0.01,VWS V14.01,2013-11-07 22:42:00,
2013-11-07 16:47:00,35.7,30.5,30.19,WSW,240,1.0,4.0,81,0.00,,OVC095,0.01,VWS V14.01,2013-11-07 22:47:00,
2013-11-07 16:52:00,35.7,30.8,30.19,WSW,238,2.0,6.0,82,0.00,,OVC070,0.01,VWS V14.01,2013-11-07 22:52:00,
2013-11-07 16:57:00,35.6,31.0,30.19,WSW,242,0.0,2.0,83,0.00,,OVC070,0.01,VWS V14.01,2013-11-07 22:57:00,
2013-11-07 17:02:00,35.5,31.1,30.19,WSW,248,1.0,7.0,84,0.00,,OVC070,0.01,VWS V14.01,2013-11-07 23:02:00,
2013-11-07 17:07:00,35.3,31.2,30.19,WSW,250,3.0,7.0,85,0.00,,OVC070,0.01,VWS V14.01,2013-11-07 23:07:00,
2013-11-07 17:12:00,35.0,31.0,30.19,WSW,253,2.0,7.0,85,0.00,,OVC070,0.01,VWS V14.01,2013-11-07 23:12:00,
2013-11-07 17:17:00,34.9,31.1,30.19,West,264,3.0,7.0,86,0.00,,OVC070,0.01,VWS V14.01,2013-11-07 23:17:00,
2013-11-07 17:22:00,34.7,31.0,30.19,West,268,2.0,7.0,86,0.00,,OVC070,0.01,VWS V14.01,2013-11-07 23:22:00,
2013-11-07 17:27:00,34.6,31.1,30.19,West,259,3.0,3.0,87,0.00,,OVC070,0.01,VWS V14.01,2013-11-07 23:27:00,
2013-11-07 17:32:00,34.4,30.9,30.19,WSW,245,2.0,4.0,87,0.00,,SCT070,0.01,VWS V14.01,2013-11-07 23:32:00,
2013-11-07 17:37:00,34.3,30.8,30.19,West,264,3.0,4.0,87,0.00,,SCT070,0.01,VWS V14.01,2013-11-07 23:37:00,
2013-11-07 17:42:00,34.1,30.9,30.20,WSW,252,2.0,6.0,88,0.00,,SCT070,0.01,VWS V14.01,2013-11-07 23:42:00,
2013-11-07 17:47:00,33.9,30.7,30.19,WSW,253,3.0,6.0,88,0.00,,SCT070,0.01,VWS V14.01,2013-11-07 23:47:00,
2013-11-07 17:52:00,33.7,30.8,30.19,West,260,4.0,6.0,89,0.00,,SCT110,0.01,VWS V14.01,2013-11-07 23:52:00,
2013-11-07 17:57:00,33.7,30.8,30.19,West,262,3.0,3.0,89,0.00,,SCT110,0.01,VWS V14.01,2013-11-07 23:57:00,
2013-11-07 18:02:00,33.6,30.7,30.19,WSW,252,3.0,4.0,89,0.00,,SCT110,0.01,VWS V14.01,2013-11-08 00:02:00,
2013-11-07 18:07:00,33.5,30.6,30.19,West,276,2.0,4.0,89,0.00,,SCT090,0.01,VWS V14.01,2013-11-08 00:07:00,
2013-11-07 18:12:00,33.5,30.6,30.20,West,268,2.0,4.0,89,0.00,,SCT090,0.01,VWS V14.01,2013-11-08 00:12:00,
2013-11-07 18:17:00,33.5,30.6,30.20,WNW,283,2.0,4.0,89,0.00,,SCT090,0.01,VWS V14.01,2013-11-08 00:17:00,
2013-11-07 18:22:00,33.5,30.6,30.20,WSW,257,2.0,4.0,89,0.00,,SCT090,0.01,VWS V14.01,2013-11-08 00:22:00,
2013-11-07 18:27:00,33.4,30.5,30.20,West,270,1.0,2.0,89,0.00,,SCT090,0.01,VWS V14.01,2013-11-08 00:27:00,
2013-11-07 18:32:00,33.3,30.4,30.20,West,276,1.0,2.0,89,0.00,,OVC046,0.01,VWS V14.01,2013-11-08 00:32:00,
2013-11-07 18:37:00,33.2,30.3,30.20,West,278,2.0,3.0,89,0.00,,OVC046,0.01,VWS V14.01,2013-11-08 00:37:00,
2013-11-07 18:42:00,33.2,30.6,30.20,West,277,2.0,3.0,90,0.00,,OVC046,0.01,VWS V14.01,2013-11-08 00:42:00,
2013-11-07 18:47:00,33.2,30.6,30.20,WSW,249,2.0,3.0,90,0.00,,OVC046,0.01,VWS V14.01,2013-11-08 00:47:00,
2013-11-07 18:52:00,33.2,30.6,30.20,West,263,1.0,3.0,90,0.00,,BKN100,0.01,VWS V14.01,2013-11-08 00:52:00,
2013-11-07 18:57:00,33.1,30.2,30.20,WSW,257,1.0,1.0,89,0.00,,BKN100,0.01,VWS V14.01,2013-11-08 00:57:00,
2013-11-07 19:02:00,32.9,30.0,30.20,SW,236,1.0,2.0,89,0.00,,BKN100,0.01,VWS V14.01,2013-11-08 01:02:00,
2013-11-07 19:07:00,32.6,29.7,30.20,WSW,252,1.0,3.0,89,0.00,,BKN100,0.01,VWS V14.01,2013-11-08 01:07:00,
2013-11-07 19:12:00,32.4,29.8,30.20,West,266,2.0,3.0,90,0.00,,BKN100,0.01,VWS V14.01,2013-11-08 01:12:00,
2013-11-07 19:17:00,32.3,29.7,30.20,WSW,240,2.0,3.0,90,0.00,,BKN100,0.01,VWS V14.01,2013-11-08 01:17:00,
2013-11-07 19:22:00,32.0,29.4,30.20,WSW,249,0.0,3.0,90,0.00,,BKN100,0.01,VWS V14.01,2013-11-08 01:22:00,
2013-11-07 19:27:00,31.6,29.0,30.20,WSW,257,3.0,3.0,90,0.00,,BKN100,0.01,VWS V14.01,2013-11-08 01:27:00,
2013-11-07 19:32:00,31.3,29.0,30.20,West,260,2.0,4.0,91,0.00,,BKN080,0.01,VWS V14.01,2013-11-08 01:32:00,
2013-11-07 19:37:00,31.1,29.0,30.20,West,263,2.0,4.0,92,0.00,,BKN080,0.01,VWS V14.01,2013-11-08 01:37:00,
2013-11-07 19:42:00,31.1,29.0,30.20,West,272,2.0,4.0,92,0.00,,BKN080,0.01,VWS V14.01,2013-11-08 01:42:00,
2013-11-07 19:47:00,31.1,29.0,30.20,West,264,2.0,5.0,92,0.00,,BKN100,0.01,VWS V14.01,2013-11-08 01:47:00,
2013-11-07 19:52:00,31.1,29.0,30.20,West,265,2.0,5.0,92,0.00,,SCT036,0.01,VWS V14.01,2013-11-08 01:52:00,
2013-11-07 19:57:00,31.0,29.0,30.20,West,274,2.0,2.0,92,0.00,,SCT036,0.01,VWS V14.01,2013-11-08 01:57:00,
2013-11-07 20:02:00,30.9,28.9,30.20,West,270,1.0,4.0,92,0.00,,SCT036,0.01,VWS V14.01,2013-11-08 02:02:00,
2013-11-07 20:07:00,30.7,28.7,30.20,West,263,2.0,4.0,92,0.00,,SCT036,0.01,VWS V14.01,2013-11-08 02:07:00,
2013-11-07 20:12:00,30.6,28.6,30.20,West,272,2.0,4.0,92,0.00,,SCT036,0.01,VWS V14.01,2013-11-08 02:12:00,
2013-11-07 20:17:00,30.6,28.6,30.20,West,266,2.0,4.0,92,0.00,,SCT036,0.01,VWS V14.01,2013-11-08 02:17:00,
2013-11-07 20:22:00,30.6,28.8,30.20,West,280,2.0,4.0,93,0.00,,SCT036,0.01,VWS V14.01,2013-11-08 02:22:00,
2013-11-07 20:27:00,30.5,28.7,30.20,West,266,1.0,2.0,93,0.00,,SCT036,0.01,VWS V14.01,2013-11-08 02:27:00,
2013-11-07 20:32:00,30.4,28.6,30.20,West,274,1.0,3.0,93,0.00,,CLR,0.01,VWS V14.01,2013-11-08 02:32:00,
2013-11-07 20:37:00,30.3,28.5,30.20,WSW,257,1.0,3.0,93,0.00,,CLR,0.01,VWS V14.01,2013-11-08 02:37:00,
2013-11-07 20:42:00,30.2,28.4,30.20,West,267,1.0,3.0,93,0.00,,CLR,0.01,VWS V14.01,2013-11-08 02:42:00,
2013-11-07 20:47:00,30.1,28.3,30.20,WSW,255,1.0,3.0,93,0.00,,CLR,0.01,VWS V14.01,2013-11-08 02:47:00,
2013-11-07 20:52:00,29.9,28.1,30.20,WSW,257,0.0,3.0,93,0.00,,CLR,0.01,VWS V14.01,2013-11-08 02:52:00,
2013-11-07 20:57:00,29.8,28.0,30.20,West,259,2.0,2.0,93,0.00,,CLR,0.01,VWS V14.01,2013-11-08 02:57:00,
2013-11-07 21:02:00,29.8,28.0,30.20,West,259,1.0,3.0,93,0.00,,CLR,0.01,VWS V14.01,2013-11-08 03:02:00,
2013-11-07 21:07:00,29.7,27.9,30.20,West,259,0.0,3.0,93,0.00,,CLR,0.01,VWS V14.01,2013-11-08 03:07:00,
2013-11-07 21:12:00,29.7,27.9,30.20,West,259,2.0,3.0,93,0.00,,CLR,0.01,VWS V14.01,2013-11-08 03:12:00,
2013-11-07 21:17:00,29.6,28.1,30.20,WSW,252,2.0,3.0,94,0.00,,CLR,0.01,VWS V14.01,2013-11-08 03:17:00,
2013-11-07 21:22:00,29.4,27.6,30.20,SW,236,1.0,3.0,93,0.00,,CLR,0.01,VWS V14.01,2013-11-08 03:22:00,
2013-11-07 21:27:00,29.2,27.4,30.21,WSW,252,0.0,0.0,93,0.00,,CLR,0.01,VWS V14.01,2013-11-08 03:27:00,
2013-11-07 21:32:00,29.0,27.5,30.21,WSW,249,1.0,2.0,94,0.00,,CLR,0.01,VWS V14.01,2013-11-08 03:32:00,
2013-11-07 21:37:00,28.8,27.3,30.20,WSW,245,0.0,2.0,94,0.00,,CLR,0.01,VWS V14.01,2013-11-08 03:37:00,
2013-11-07 21:42:00,28.7,27.2,30.20,WSW,257,1.0,2.0,94,0.00,,CLR,0.01,VWS V14.01,2013-11-08 03:42:00,
2013-11-07 21:47:00,28.8,27.5,30.21,WSW,252,1.0,3.0,95,0.00,,CLR,0.01,VWS V14.01,2013-11-08 03:47:00,
2013-11-07 21:52:00,29.0,27.8,30.21,West,264,1.0,3.0,95,0.00,,CLR,0.01,VWS V14.01,2013-11-08 03:52:00,
2013-11-07 21:57:00,28.9,27.6,30.21,WSW,249,0.0,0.0,95,0.00,,CLR,0.01,VWS V14.01,2013-11-08 03:57:00,
2013-11-07 22:02:00,28.7,27.2,30.20,WSW,249,0.0,1.0,94,0.00,,CLR,0.01,VWS V14.01,2013-11-08 04:02:00,
2013-11-07 22:07:00,28.5,27.2,30.20,WSW,249,0.0,1.0,95,0.00,,CLR,0.01,VWS V14.01,2013-11-08 04:07:00,
2013-11-07 22:12:00,28.4,27.1,30.20,WSW,249,0.0,1.0,95,0.00,,CLR,0.01,VWS V14.01,2013-11-08 04:12:00,
2013-11-07 22:17:00,28.4,27.1,30.20,WSW,249,0.0,1.0,95,0.00,,CLR,0.01,VWS V14.01,2013-11-08 04:17:00,
2013-11-07 22:22:00,28.3,27.0,30.20,WSW,249,0.0,1.0,95,0.00,,CLR,0.01,VWS V14.01,2013-11-08 04:22:00,
2013-11-07 22:27:00,28.2,27.0,30.20,WSW,241,1.0,1.0,95,0.00,,CLR,0.01,VWS V14.01,2013-11-08 04:27:00,
2013-11-07 22:32:00,28.1,26.9,30.20,WSW,241,1.0,1.0,95,0.00,,CLR,0.01,VWS V14.01,2013-11-08 04:32:00,
2013-11-07 22:37:00,28.0,26.8,30.20,WSW,242,1.0,1.0,95,0.00,,CLR,0.01,VWS V14.01,2013-11-08 04:37:00,
2013-11-07 22:42:00,27.9,26.7,30.20,WSW,242,0.0,1.0,95,0.00,,CLR,0.01,VWS V14.01,2013-11-08 04:42:00,
2013-11-07 22:47:00,27.7,26.5,30.20,WSW,242,0.0,1.0,95,0.00,,CLR,0.01,VWS V14.01,2013-11-08 04:47:00,
2013-11-07 22:52:00,27.5,26.3,30.20,West,260,0.0,1.0,95,0.00,,CLR,0.01,VWS V14.01,2013-11-08 04:52:00,
2013-11-07 22:57:00,27.4,26.2,30.20,WSW,238,0.0,0.0,95,0.00,,CLR,0.01,VWS V14.01,2013-11-08 04:57:00,
2013-11-07 23:01:00,27.3,26.1,30.20,WSW,237,1.0,1.0,95,0.00,,CLR,0.01,VWS V14.01,2013-11-08 05:01:00,
2013-11-07 23:06:00,27.1,25.9,30.20,SW,228,0.0,2.0,95,0.00,,CLR,0.01,VWS V14.01,2013-11-08 05:06:00,
2013-11-07 23:11:00,27.0,26.0,30.20,WSW,241,0.0,2.0,96,0.00,,CLR,0.01,VWS V14.01,2013-11-08 05:11:00,
2013-11-07 23:16:00,26.9,25.9,30.20,WSW,249,0.0,2.0,96,0.00,,CLR,0.01,VWS V14.01,2013-11-08 05:16:00,
2013-11-07 23:21:00,26.9,25.9,30.20,WSW,249,1.0,2.0,96,0.00,,CLR,0.01,VWS V14.01,2013-11-08 05:21:00,
2013-11-07 23:26:00,26.9,25.9,30.20,WSW,249,1.0,2.0,96,0.00,,CLR,0.01,VWS V14.01,2013-11-08 05:26:00,
2013-11-07 23:31:00,26.9,25.9,30.20,WSW,249,0.0,2.0,96,0.00,,CLR,0.01,VWS V14.01,2013-11-08 05:31:00,
2013-11-07 23:36:00,26.8,25.8,30.19,WSW,253,0.0,2.0,96,0.00,,CLR,0.01,VWS V14.01,2013-11-08 05:36:00,
2013-11-07 23:41:00,26.7,25.7,30.19,West,259,0.0,2.0,96,0.00,,CLR,0.01,VWS V14.01,2013-11-08 05:41:00,
2013-11-07 23:46:00,26.7,25.7,30.19,WSW,249,0.0,2.0,96,0.00,,CLR,0.01,VWS V14.01,2013-11-08 05:46:00,
2013-11-07 23:51:00,26.6,25.6,30.19,WSW,249,0.0,2.0,96,0.00,,CLR,0.01,VWS V14.01,2013-11-08 05:51:00,
2013-11-07 23:56:00,26.6,25.6,30.19,WSW,249,1.0,2.0,96,0.00,,CLR,0.01,VWS V14.01,2013-11-08 05:56:00,